Tracking 27122 objects as of 24-Mar-2023
HD Live streaming from Space Station
objects crossing your sky now

S-NET C

Track S-NET C now!
10-day predictions


NORAD ID: 43189
Int'l Code: 2018-014K
Perigee: 565.8 km
Apogee: 584.0 km
Inclination: 97.6 °
Period: 96.0 minutes
Semi major axis: 6945 km
RCS: Unknown
Launch date: February 1, 2018
Source: Germany (GER)
Launch site: VOSTOCHNY COSMODROME (VOSTO)
Your satellite tracking list
Your tracking list is empty




NASA's NSSDC Master Catalog

Two Line Element Set (TLE):
1 43189U 18014K   23083.20802350  .00020133  00000-0  16289-2 0  9992
2 43189  97.6396 348.4763 0013139  84.8998 275.3725 14.99723023279363
Source of the keplerian elements: AMSAT